TimeCDT,TemperatureF,Dew PointF,Humidity,Sea Level PressureIn,VisibilityMPH,Wind Direction,Wind SpeedMPH,Gust SpeedMPH,PrecipitationIn,Events,Conditions,WindDirDegrees,DateUTC
12:53 AM,82.0,75.9,82,30.04,10.0,SSE,6.9,-,N/A,,Mostly Cloudy,150,2010-07-18 05:53:00
1:53 AM,80.1,78.1,94,30.04,10.0,SE,3.5,-,0.04,,Mostly Cloudy,140,2010-07-18 06:53:00
2:53 AM,80.1,78.1,94,30.02,10.0,ESE,5.8,-,N/A,,Mostly Cloudy,120,2010-07-18 07:53:00
3:43 AM,80.6,75.2,84,30.02,10.0,SE,9.2,-,N/A,,Overcast,130,2010-07-18 08:43:00
3:53 AM,79.0,75.0,88,30.03,10.0,SE,10.4,-,N/A,,Mostly Cloudy,140,2010-07-18 08:53:00
4:33 AM,78.8,73.4,83,30.02,10.0,ESE,3.5,-,N/A,,Mostly Cloudy,120,2010-07-18 09:33:00
4:53 AM,79.0,73.9,84,30.03,10.0,Calm,Calm,-,N/A,,Mostly Cloudy,0,2010-07-18 09:53:00
5:53 AM,79.0,75.0,88,30.05,10.0,Calm,Calm,-,N/A,,Mostly Cloudy,0,2010-07-18 10:53:00
6:53 AM,80.1,77.0,90,30.06,10.0,Calm,Calm,-,N/A,,Mostly Cloudy,0,2010-07-18 11:53:00
7:53 AM,82.9,78.1,85,30.07,10.0,SSE,4.6,-,N/A,,Mostly Cloudy,160,2010-07-18 12:53:00
8:17 AM,78.8,73.4,83,30.08,2.0,SW,18.4,24.2,0.00,Rain,Heavy Rain,220,2010-07-18 13:17:00
8:21 AM,75.2,73.4,94,30.08,2.5,SSW,12.7,24.2,0.09,Rain,Rain,210,2010-07-18 13:21:00
8:34 AM,75.2,73.4,94,30.08,4.0,South,10.4,-,0.32,Rain,Light Rain,180,2010-07-18 13:34:00
8:53 AM,75.9,73.9,94,30.09,6.0,South,8.1,-,0.51,Rain,Light Rain,170,2010-07-18 13:53:00
9:53 AM,77.0,75.0,94,30.09,7.0,SSE,4.6,-,0.05,Rain,Light Rain,160,2010-07-18 14:53:00
10:53 AM,80.1,73.9,81,30.10,10.0,Calm,Calm,-,0.04,Rain,Light Rain,0,2010-07-18 15:53:00
11:53 AM,80.1,75.0,85,30.10,10.0,Calm,Calm,-,0.00,,Overcast,0,2010-07-18 16:53:00
12:53 PM,82.0,75.9,82,30.09,10.0,Calm,Calm,-,0.00,Rain,Light Rain,0,2010-07-18 17:53:00
1:53 PM,84.0,77.0,79,30.06,10.0,SSE,3.5,-,0.00,,Overcast,150,2010-07-18 18:53:00
2:53 PM,87.1,75.0,67,30.05,10.0,South,11.5,-,N/A,,Mostly Cloudy,170,2010-07-18 19:53:00
3:29 PM,86.0,75.2,70,30.03,10.0,South,8.1,-,N/A,Thunderstorm,Thunderstorm,170,2010-07-18 20:29:00
3:53 PM,84.0,75.0,74,30.06,10.0,SSW,9.2,-,N/A,Thunderstorm,Thunderstorm,200,2010-07-18 20:53:00
4:05 PM,84.2,75.2,74,30.04,10.0,SSW,4.6,-,N/A,,Overcast,200,2010-07-18 21:05:00
4:36 PM,84.2,73.4,70,30.04,10.0,SW,8.1,-,N/A,Thunderstorm,Thunderstorm,220,2010-07-18 21:36:00
4:53 PM,84.0,73.9,72,30.05,10.0,SSW,3.5,-,N/A,Thunderstorm,Thunderstorm,210,2010-07-18 21:53:00
5:00 PM,84.2,73.4,70,30.04,10.0,SSW,6.9,-,N/A,,Overcast,200,2010-07-18 22:00:00
5:53 PM,82.0,77.0,85,30.06,10.0,West,5.8,-,0.00,Rain,Light Rain,280,2010-07-18 22:53:00
6:53 PM,80.1,73.0,79,30.05,10.0,West,3.5,-,0.00,,Overcast,270,2010-07-18 23:53:00
7:53 PM,80.1,73.9,81,30.04,10.0,Calm,Calm,-,0.00,Rain,Light Rain,0,2010-07-19 00:53:00
8:53 PM,80.1,75.9,87,30.04,10.0,SE,3.5,-,0.00,,Overcast,140,2010-07-19 01:53:00
9:53 PM,80.1,75.9,87,30.05,10.0,SE,3.5,-,N/A,,Overcast,140,2010-07-19 02:53:00
10:53 PM,80.1,75.0,85,30.06,10.0,Calm,Calm,-,N/A,,Mostly Cloudy,0,2010-07-19 03:53:00
11:53 PM,79.0,75.0,88,30.05,10.0,Calm,Calm,-,N/A,,Mostly Cloudy,0,2010-07-19 04:53:00